Showing default

R5-S2, 60207

Orbit data source: Space-Track

R5-S2, 60207 is a payload satellite owned by NASA JSC (US) in SSO that was launched on Thu, 04 Jul 2024 UTC via an FIREFLY ALPHA launch vehicle from the Air Force Western Test Range (AFWTR). Payload-class satellites include a variety of spacecraft equipped with specific instruments for various scientific and technological missions. These include communications satellites like Starlink; space stations such as the ISS; scientific satellites like the Hubble; Earth observation satellites from companies like Planet Labs, Umbra, and HawkEye 360; GPS; miniature CubeSats for education and research; and military/defense satellites.

Loading next visibility...
Identifier
60207, 2024-125E
Orbit
SSO
Country
Flag of USUS
Related business
Manufacturer
NASA JSC
Mission
Operational Civil Technology
Bus & Motor
CUBESAT 6U, Unknown motor
Mass
7.26 kg wet, 7 kg dry
Launch date (UTC)
2024-07-04 (1 year ago)
Launch vehicle
FIREFLY ALPHA
Launch site
Air Force Western Test Range (AFWTR)
Object type
Payload
Rocket body
Debris
Shape & HBR
Box, 0.1 m
Radar Cross Section
0.035 m², Small (<0.1 m²)

Expand to show TLE details & history
Last TLE update: 18 hours ago

TLE from 18 hours ago
0 R5-S2
1 60207U 24125E   25348.84813300  .00010732  00000-0  28573-3 0  9999
2 60207  97.2554 197.0653 0018153 173.0231 187.1271 15.38205974 80789
Epoch: 2025-12-14T20:21Z
TLE epoch observation values (Epoch: 2025-12-14T20:21:18.691Z)
Latitude
0.00003°
Longitude
167.98225°
Altitude
466.839 km
Speed
7.626 km/s
True Right ascension
13h 08m 15s
True Declination
0° 00' 00"
Sunlit
Object was in daylight at epoch
Visualization orbit readout
Latitude
Unknown
Longitude
Unknown
Altitude
Unknown
Speed
Unknown
Apparent Right ascension
Unknown
Apparent Declination
Unknown
Sunlit
N/A
Visualization observer readout
Local Sidereal Time
13:23:52
Azimuth
Unknown
Elevation
Unknown
Doppler factor
Unknown
Orbital elements
Apogee altitude
460.742 km
Perigee altitude
435.957 km
Semi-major axis
6,826.487 km
Eccentricity
0.00182
Inclination
97.2554°
RAAN
197.0653°
Arg. of periapsis
173.0231°
True anomaly
187.10135°
Mean anomaly
187.1271°
Eccentric anomaly
187.11422°
Mean motion
3.84811 °/min
Orbital period
93.55 mins
BSTAR
0.00028573
Loading maneuver chart data...
Computing Atmospheric mass density...
Loading historical data...
Loading historical data...
Loading historical data...
Loading historical data...
Loading historical data...
Loading historical data...
Loading historical data...

Documentation

Showing up to 5 results
|